GFSGBSN_700_temp_000.txt.gz
Temp
3 3 3 4 4 5 5 6 6 6 6 6 7 7 7 7 7 7 7 6 6 6 6 6 6 6 5 5 5 5 6 6 6 5 6 6 7 8 8 8 8 8 7 7 6 6 6
3 3 3 3 4 4 5 5 5 6 6 6 6 7 6 6 6 6 6 6 6 6 7 7 6 5 5 6 6 6 6 4 5 6 6 6 6 7 7 7 7 7 7 7 7 7 7
3 3 3 3 4 4 4 5 5 6 6 6 6 6 6 5 5 6 6 6 6 6 6 6 6 6 5 7 6 5 6 7 6 7 7 8 8 6 7 7 9 8 7 8 8 8 7
2 3 3 3 3 4 4 5 5 5 5 5 5 5 5 5 5 6 6 7 7 6 6 6 6 6 7 7 6 6 5 6 8 8 8 8 9 8 8 8 8 8 9 10 9 8 8
3 3 3 3 3 3 4 5 5 5 5 5 5 5 5 5 6 6 7 7 7 6 6 6 6 5 6 7 6 7 7 8 8 8 8 8 8 8 8 8 9 10 10 10 9 9 8
3 3 3 3 4 4 4 4 4 5 5 5 5 5 5 5 5 6 6 6 6 6 6 6 7 6 7 7 8 8 8 9 8 7 7 7 7 8 9 8 8 8 8 9 9 9 8
3 3 3 3 3 4 4 4 4 5 5 5 5 5 5 5 5 5 5 5 6 6 5 5 6 7 8 8 8 7 8 8 6 6 7 8 8 8 7 7 7 8 9 9 9 8 8
3 3 3 3 3 4 4 4 4 5 5 5 5 5 5 5 5 5 5 4 5 6 6 7 8 8 8 8 6 7 8 7 7 7 7 8 8 7 7 7 7 8 9 8 7 7 7
3 3 3 3 4 4 4 4 4 4 5 5 5 5 5 6 6 6 6 6 6 6 5 7 7 8 8 8 8 8 8 8 6 7 7 7 7 8 7 7 6 7 7 6 6 6 9
3 3 3 3 3 4 4 4 4 5 5 5 5 5 5 5 5 6 6 6 6 6 6 6 6 7 7 8 6 7 7 8 6 6 7 7 7 7 6 7 6 6 6 7 6 6 7
2 3 3 3 3 3 4 4 5 5 5 5 6 6 6 6 6 6 6 6 6 6 7 6 5 6 7 6 6 5 7 7 6 6 7 7 6 6 6 6 5 5 6 6 6 7 7
2 2 2 3 3 3 4 4 4 5 5 5 6 6 6 6 6 6 6 5 6 5 7 5 5 5 5 5 5 5 5 6 6 7 6 6 6 6 6 6 5 5 6 7 8 7 7
2 2 2 2 3 3 3 4 4 5 5 5 5 6 6 6 6 6 6 5 5 6 6 6 5 5 5 5 5 5 5 5 5 5 7 7 6 5 6 5 6 5 5 6 6 8 7
2 2 2 2 3 3 3 4 4 4 4 5 5 5 5 6 6 6 6 5 5 6 6 5 5 5 5 5 5 5 6 6 4 5 6 6 7 5 4 4 4 4 4 5 4 5 5
2 2 2 2 2 3 3 3 4 4 4 4 5 5 5 5 5 5 5 4 5 5 5 5 5 6 6 5 5 5 4 4 3 3 3 4 6 5 4 4 4 4 4 3 3 3 2
2 2 2 2 2 2 3 3 3 4 4 4 4 4 4 5 5 5 4 4 4 5 4 4 5 5 6 5 5 5 4 3 3 2 2 3 2 4 3 3 4 4 3 3 3 2 4
2 2 2 2 2 2 2 3 3 3 4 4 4 3 4 4 4 4 3 3 3 4 4 4 4 4 4 4 4 4 4 2 2 2 2 2 1 3 3 5 4 4 4 4 4 4 3
2 2 2 2 2 2 2 2 3 3 3 3 3 3 4 4 3 3 3 3 4 3 3 3 2 3 3 3 3 3 3 2 2 2 2 1 1 0 3 3 3 3 3 4 3 2 3
2 2 2 2 2 2 2 2 2 2 3 3 2 3 3 3 3 3 3 3 3 2 3 2 2 3 3 2 2 2 2 1 2 1 1 1 1 1 3 4 3 3 3 3 3 3 1
1 2 2 2 2 2 2 2 2 2 2 2 3 2 3 3 3 2 2 2 3 3 3 3 3 2 2 2 2 1 2 1 1 1 0 0 -0 0 1 1 1 1 2 2 2 2 2
1 1 2 2 1 2 2 2 2 2 2 2 2 2 2 2 3 2 2 2 2 2 2 2 1 1 1 1 1 1 1 1 1 1 0 -0 -1 -0 -0 -0 -0 -1 0 1 1 2 2
1 1 1 1 2 2 2 1 1 1 2 1 1 1 2 2 2 1 2 2 2 1 1 1 1 1 1 1 1 1 0 -0 -0 0 0 -1 -1 -1 -1 -1 -1 -1 0 1 1 1 2
1 1 1 1 1 1 1 1 1 1 1 1 1 1 1 1 1 1 1 1 1 1 0 1 0 -0 -0 -0 -0 -0 0 0 0 -0 -0 -1 -1 -1 -1 -1 -2 -2 2 2 1 1 1
-1 -0 0 1 0 0 1 1 1 1 1 0 1 0 1 0 0 1 0 0 0 0 -0 -0 -1 -1 -1 -1 -1 -0 0 0 1 2 0 -1 -0 -1 -2 -2 -2 1 2 2 1 1 1
-1 -1 -1 -0 -0 -0 0 0 0 0 0 0 0 -0 -0 0 0 -0 -0 -0 -1 -1 -1 -1 -1 -1 -1 -1 -1 -1 -1 -0 1 -0 0 -0 -1 -1 -2 -2 -1 -2 1 1 1 -0 -0
-1 -1 -1 -1 -1 -1 -1 -1 -0 -0 -0 -0 -0 -0 -1 -1 0 -0 -1 -1 -1 -1 -1 -1 -1 -0 -0 -1 -2 -2 -2 -2 -1 -1 -0 -0 -1 -1 -2 -2 -2 -1 -0 -1 -1 -1 -1
-1 -1 -1 -1 -1 -1 -1 -1 -1 -1 -1 -1 -1 -1 -1 -1 0 -0 -0 -1 -1 -1 -2 -2 -2 -1 -1 -2 -2 -3 -3 -2 -2 -1 -2 -2 -2 -2 -2 -3 -2 -1 -1 -2 -2 -2 -3
-1 -1 -1 -2 -2 -1 -1 -2 -2 -2 -1 -1 -1 -1 -1 -1 -0 -1 -0 -1 -1 -1 -1 -1 -2 -2 -2 -2 -2 -2 -2 -2 -3 -2 -2 -2 -3 -3 -3 -3 -2 -1 -1 -2 -3 -3 -3
-2 -2 -2 -2 -2 -2 -2 -2 -2 -2 -2 -2 -1 -1 -2 -2 -2 -1 -1 0 -1 -1 -2 -2 -2 -3 -2 -2 -3 -3 -3 -3 -3 -4 -2 -3 -2 -3 -3 -2 -2 -2 -2 -3 -3 -3 -3

GFSGBSN_700_temp_003.txt.gz
Temp
3 4 3 4 4 4 4 5 5 5 6 6 6 7 7 7 7 7 7 7 7 6 6 5 5 5 6 7 6 6 6 7 6 6 7 7 8 8 8 8 8 8 8 8 9 9 8
3 3 3 3 3 4 4 5 5 5 6 6 6 6 6 6 7 7 7 7 6 6 6 5 5 6 7 7 6 6 7 7 6 7 7 8 8 8 8 8 8 8 9 8 8 8 8
3 3 3 3 3 3 4 4 5 5 5 6 6 6 6 6 6 6 6 6 6 5 5 6 6 6 7 7 7 8 7 7 8 8 8 8 8 8 8 8 9 9 8 8 8 8 8
3 3 3 3 3 4 4 4 5 5 5 5 5 5 5 5 6 6 6 6 5 6 6 5 6 6 7 7 8 7 7 8 8 9 8 8 9 9 8 8 9 9 9 9 9 9 8
2 3 3 3 3 4 4 4 4 5 5 5 5 5 5 5 6 6 6 6 6 6 6 6 6 5 6 7 7 8 7 8 9 8 8 8 8 8 7 8 8 8 8 9 9 9 9
2 2 2 3 3 3 4 4 4 4 5 5 5 5 5 5 5 5 5 6 6 5 5 5 6 6 6 7 7 8 8 9 9 8 8 8 8 8 8 9 7 8 8 9 8 8 8
2 3 3 3 3 3 3 4 4 4 4 4 4 5 4 5 4 5 5 5 6 6 6 6 6 6 7 8 8 8 8 9 8 7 8 8 7 8 8 7 7 7 8 8 9 9 8
3 3 3 3 3 3 4 4 4 4 4 5 5 5 5 5 5 5 5 6 5 6 6 6 7 7 8 7 7 8 9 9 9 8 8 8 8 7 8 7 7 8 7 8 8 8 7
3 3 3 3 3 3 3 4 4 4 4 5 5 5 5 5 5 6 6 6 5 6 6 7 7 7 8 8 8 8 8 8 8 7 7 7 7 7 7 7 7 7 6 7 6 7 9
3 3 3 3 3 4 4 4 4 5 5 5 5 5 5 5 5 5 6 6 6 6 6 6 6 6 7 7 7 7 7 8 7 7 8 7 6 7 7 6 7 7 7 7 7 6 6
2 3 3 3 3 3 4 4 4 4 5 5 5 5 5 5 6 6 6 6 6 6 5 6 6 6 7 7 6 6 7 7 7 7 7 7 7 7 7 6 6 5 5 6 7 7 7
2 3 3 3 3 3 4 4 4 5 5 5 5 6 6 6 6 6 6 6 6 5 6 6 6 6 5 5 6 5 5 6 6 7 6 6 6 7 6 6 5 5 5 7 8 8 6
2 2 3 3 3 3 3 4 4 5 5 5 5 6 6 6 6 6 6 6 5 6 6 6 5 5 5 6 5 6 5 5 6 7 6 7 6 6 6 6 6 5 5 4 3 2 1
2 2 2 2 3 3 3 3 4 4 5 5 5 5 6 6 6 6 6 5 5 6 6 6 6 5 6 6 5 5 5 4 5 5 5 5 5 5 5 4 4 4 4 4 1 -2 1
2 2 2 2 2 2 3 3 3 4 4 5 5 5 5 5 5 5 5 5 5 5 5 5 5 6 6 5 5 5 5 4 4 4 4 3 5 5 4 4 4 4 4 3 3 3 2
2 2 2 2 2 2 3 3 3 4 4 4 4 4 4 5 5 5 5 4 5 5 5 5 5 5 5 5 5 5 4 3 2 3 2 2 2 4 4 4 4 4 3 3 3 -1 -1
2 2 2 2 2 2 2 3 3 3 4 4 4 4 4 4 4 4 4 4 4 4 5 4 4 4 4 4 4 4 3 2 2 3 2 2 2 4 4 4 4 3 4 3 2 1 0
2 2 2 2 2 2 2 3 3 3 3 3 3 3 4 4 4 3 3 3 3 3 3 4 4 4 3 3 3 3 3 2 2 2 1 1 1 1 4 4 3 3 2 3 2 1 1
1 2 2 2 2 2 2 2 3 3 3 3 4 3 3 4 3 3 3 4 4 3 3 3 3 3 3 2 3 2 2 2 2 1 1 1 1 1 3 3 3 3 3 2 1 1 1
1 1 2 2 2 2 2 2 2 2 2 2 3 3 3 3 3 3 3 3 3 3 3 3 3 2 2 2 2 2 2 1 1 1 1 1 1 1 1 1 -0 -0 0 2 0 -0 0
1 1 1 2 2 2 2 2 2 2 2 2 2 2 2 2 2 2 3 2 2 2 2 2 2 1 1 1 1 1 1 1 1 1 0 0 -0 -0 -0 -1 -1 -1 -1 1 0 0 -1
1 1 1 2 2 2 2 2 2 2 2 2 1 2 2 2 2 2 2 2 2 2 2 1 1 1 1 1 1 0 0 1 0 1 1 0 -0 -0 -1 0 -0 -1 1 2 1 1 0
1 1 1 1 1 2 2 2 2 2 2 2 1 1 2 1 2 2 1 1 1 1 1 1 1 1 1 0 0 0 0 0 0 1 2 -0 -1 -1 -1 -1 -1 -1 2 1 0 1 1
0 0 0 0 1 1 1 1 1 1 1 1 1 1 1 1 1 1 1 1 1 0 0 -0 -0 0 -0 -0 -1 -0 0 1 1 2 0 0 0 -1 -1 -1 -2 1 1 1 0 -0 0
-0 0 -0 -0 0 0 1 1 1 1 1 1 0 0 1 1 1 1 1 1 1 1 0 -0 -1 -1 -0 -1 -1 -0 0 1 1 0 0 0 -0 -1 -1 -2 -2 -1 0 -0 -0 -0 -1
-1 -0 -0 -0 -0 -0 -0 0 0 0 0 0 0 -0 -0 -0 0 0 0 0 1 -0 -0 -0 -1 -1 -1 -1 -1 -2 -1 -1 -1 -0 -0 -0 -1 -1 -1 -3 -3 -0 -1 -1 -2 -2 -1
-1 -1 -0 -0 -0 -0 -1 -1 -1 -0 -0 -0 -0 -1 -1 -1 -0 -0 0 -0 -0 -1 -1 -1 -1 -1 -1 -1 -2 -3 -3 -2 -2 -1 -1 -1 -2 -2 -1 -3 -2 0 -1 -1 -2 -2 -3
-1 -1 -1 -1 -1 -1 -1 -1 -1 -1 -1 -1 -1 -1 -1 -1 -0 -1 -0 -0 -1 -1 -1 -2 -2 -2 -2 -2 -2 -2 -3 -2 -2 -2 -2 -2 -2 -3 -3 -3 -3 -1 -1 -2 -3 -3 -3
-2 -2 -1 -1 -1 -1 -1 -1 -1 -1 -1 -1 -1 -1 -1 -1 -1 -1 -0 -0 -1 -1 -1 -2 -2 -2 -3 -2 -2 -3 -3 -3 -3 -3 -3 -3 -2 -2 -2 -2 -1 -1 -2 -3 -3 -3 -4

GFSGBSN_700_temp_009.txt.gz
Temp
3 3 3 4 4 4 4 4 5 5 5 5 5 6 6 6 6 6 5 6 5 5 5 6 6 6 7 7 7 6 7 7 8 8 8 9 9 9 9 8 8 8 8 8 8 8 8
3 3 3 3 3 4 4 5 5 5 5 5 5 5 6 6 5 5 6 5 5 5 5 6 7 7 7 8 8 8 8 8 8 9 9 9 8 8 8 8 8 8 8 8 8 8 8
2 3 3 3 3 3 4 4 5 5 5 5 5 5 5 5 5 5 5 5 5 5 6 7 7 7 8 8 9 8 8 8 9 9 9 9 8 8 8 8 8 8 8 8 8 8 7
2 2 3 3 3 3 3 4 4 4 5 5 5 5 5 5 5 5 5 6 6 6 6 7 7 7 8 8 8 8 9 9 8 8 9 8 8 8 8 8 8 8 8 8 8 8 7
2 2 2 3 3 3 3 4 4 4 4 4 4 5 5 5 5 6 6 6 6 6 6 7 7 8 8 8 9 9 9 9 9 8 8 8 8 8 8 8 8 8 8 7 8 8 7
2 2 2 2 3 3 3 3 3 4 4 4 4 5 5 5 5 5 6 6 6 6 6 7 7 8 8 9 9 9 9 8 8 8 8 8 7 7 7 7 7 7 7 7 7 7 8
1 2 2 2 3 3 3 3 3 3 3 4 4 4 4 5 5 5 6 6 6 6 6 7 7 7 7 8 8 8 8 8 8 8 8 8 7 7 7 7 7 7 6 7 7 7 7
2 2 2 2 3 3 3 3 3 3 3 4 4 5 5 5 5 5 5 6 6 6 6 6 6 7 7 7 7 8 8 8 7 7 7 7 7 7 7 7 6 6 6 6 7 6 7
2 2 2 2 2 3 3 3 3 3 3 4 4 4 5 5 5 5 6 6 6 6 6 6 6 7 7 7 7 7 7 7 7 7 7 7 6 6 6 6 6 6 6 6 6 6 6
2 2 2 2 3 3 3 3 3 4 4 4 4 5 5 5 5 5 6 6 6 6 6 6 6 6 6 6 6 6 6 7 7 7 6 6 6 6 6 6 6 6 6 6 6 5 6
2 2 2 3 3 3 3 3 4 4 4 4 5 5 5 5 5 6 5 6 6 6 3 5 5 5 5 6 6 6 6 6 6 6 6 6 5 5 5 5 5 5 6 6 6 6 6
2 2 2 2 3 3 4 4 4 4 4 5 5 5 5 5 5 5 5 6 6 6 4 5 5 5 5 5 5 5 5 6 6 6 5 5 5 5 5 5 4 5 6 6 6 6 4
2 2 2 2 3 3 4 4 4 4 4 5 5 5 5 5 5 5 5 5 5 5 5 5 5 5 5 5 5 5 5 6 6 6 5 5 4 4 4 4 4 4 6 5 2 1 1
1 2 2 2 3 3 3 4 4 4 5 5 5 5 5 5 6 6 5 5 5 5 5 5 5 5 5 5 4 4 4 5 4 4 4 4 4 4 4 4 3 3 3 3 0 -3 1
1 2 2 2 2 3 3 3 4 4 5 5 5 5 5 5 6 5 5 5 5 5 5 5 5 5 4 4 4 4 4 3 3 3 3 4 4 4 3 3 3 3 2 2 2 1 -0
1 1 2 2 2 2 3 3 3 4 4 5 5 5 5 5 5 5 5 5 5 5 5 5 5 4 4 5 4 4 4 3 3 3 3 2 3 4 4 3 3 3 2 2 2 -4 -1
1 1 2 2 2 2 2 3 3 4 4 4 4 4 5 5 5 5 4 5 4 4 4 4 5 4 4 4 4 4 3 2 2 3 3 2 3 4 3 3 3 3 2 1 1 1 -1
1 1 2 2 2 2 2 3 3 3 4 4 4 4 4 4 4 4 4 4 4 4 4 4 4 4 4 3 3 3 3 2 2 2 2 2 2 3 2 3 3 2 1 1 -0 -1 -1
1 1 2 2 2 2 2 2 3 3 3 3 3 4 4 4 4 4 4 4 4 4 4 4 3 3 3 3 3 3 2 2 1 2 1 1 1 1 2 2 3 3 1 0 -1 -1 -1
1 1 1 2 2 2 2 2 2 3 3 3 3 3 3 3 3 3 3 3 3 3 3 3 3 3 3 3 2 2 2 1 1 1 1 1 1 0 0 1 0 1 0 -0 -1 -2 -2
1 1 1 1 2 2 2 2 2 3 3 3 3 3 3 3 3 3 3 3 3 3 3 3 3 3 3 2 2 2 2 1 1 1 1 0 0 0 -0 -1 -1 0 0 1 -0 0 -2
1 1 1 1 1 2 2 2 2 2 3 3 3 3 3 3 3 2 2 2 2 2 2 2 2 2 2 2 1 1 1 1 1 1 0 -1 -1 -0 1 0 0 1 2 1 2 1 0
1 1 1 1 1 1 2 2 2 2 2 3 3 3 3 3 2 2 2 2 1 2 2 2 1 1 1 1 1 1 1 1 1 0 0 -1 -1 -2 -2 -0 -1 1 2 1 0 -0 -1
0 1 1 1 1 1 1 1 2 2 2 2 2 2 2 2 2 2 2 2 2 1 1 1 1 1 1 1 1 1 1 1 1 1 1 0 -1 -2 -2 -1 -4 1 0 -0 -0 0 -0
-0 0 0 0 1 1 1 1 1 1 1 1 2 2 2 2 2 2 1 1 1 1 0 0 0 0 -0 -0 -0 1 1 1 1 0 0 0 -0 -1 -2 -3 -2 -1 -0 -1 -1 -1 -1
-0 -0 -0 0 0 0 1 1 1 1 1 1 1 1 1 1 1 1 1 1 0 0 -0 -0 0 0 -0 -0 -1 -1 -1 -1 -0 -0 -0 -0 -1 -1 -1 -4 -4 -0 -1 -2 -2 -3 -2
-1 -1 -0 -0 -0 0 0 0 0 1 0 0 1 1 1 1 1 1 1 1 0 0 0 -0 -0 -0 -1 -0 -1 -2 -2 -1 -1 -1 -1 -1 -2 -2 -2 -2 -2 -1 -1 -1 -3 -3 -4
-1 -1 -1 -1 -0 -0 -0 -0 -0 0 0 0 0 0 0 0 0 1 1 1 1 0 0 -1 -1 -0 -1 -1 -2 -2 -2 -2 -2 -2 -2 -3 -3 -3 -3 -4 -3 -1 -2 -3 -3 -4 -4
-1 -1 -1 -1 -1 -1 -1 -1 -1 -1 -1 -0 -0 -0 -0 -0 0 0 0 0 0 0 -0 -1 -1 -1 -2 -2 -2 -2 -3 -3 -3 -4 -3 -3 -2 -2 -3 -2 -2 -2 -3 -4 -4 -4 -4

GFSGBSN_700_temp_015.txt.gz
Temp
3 3 4 3 4 3 4 4 4 4 4 4 5 5 5 5 5 5 5 5 4 5 5 5 5 6 5 6 6 6 6 6 7 7 7 8 8 9 9 8 8 8 8 8 7 7 7
3 3 3 3 3 3 3 4 4 4 4 4 5 5 5 5 5 5 5 4 4 4 4 5 6 6 6 6 6 6 6 6 7 7 7 8 8 9 8 8 8 8 8 8 8 8 7
3 3 3 3 2 3 3 4 4 4 4 4 5 5 5 5 5 4 4 4 4 4 5 5 5 5 5 6 6 6 7 7 7 7 7 8 8 8 8 8 8 8 8 8 8 8 8
2 2 2 2 3 3 3 3 3 4 4 4 4 4 4 4 4 4 4 4 4 4 5 5 6 6 6 6 6 6 7 7 7 7 8 8 8 8 8 8 8 8 8 8 7 8 7
2 2 2 2 2 2 3 3 3 3 3 3 4 4 4 4 4 4 4 4 4 4 5 5 6 6 7 7 7 8 8 7 8 8 8 8 8 8 8 8 8 8 7 7 7 7 7
1 2 2 2 2 2 2 2 2 2 3 3 3 3 4 4 4 4 4 5 5 5 5 6 6 7 7 7 8 8 8 8 7 8 8 8 8 8 8 8 7 7 7 6 6 6 6
1 1 1 2 2 2 2 2 2 2 3 3 3 3 4 4 4 4 5 5 5 5 5 6 7 7 7 7 8 8 8 8 8 8 7 7 7 7 7 7 7 6 6 6 6 6 6
1 1 1 2 2 2 2 2 2 2 2 3 3 3 4 4 5 5 5 5 5 6 6 6 7 7 7 7 8 8 8 8 7 7 7 7 7 6 6 6 6 6 6 6 6 6 6
1 1 1 2 2 2 2 2 2 2 2 3 3 4 4 4 4 5 5 5 6 6 6 6 6 6 7 7 8 8 7 7 7 7 7 6 6 6 6 6 6 6 6 6 5 6 6
1 1 1 2 2 2 2 2 2 2 2 3 3 4 4 4 5 5 5 6 6 7 7 6 6 6 6 6 7 7 7 7 7 6 6 6 5 5 5 5 6 6 5 5 5 5 5
1 1 1 2 2 2 2 2 2 3 3 3 3 4 4 4 5 5 5 6 6 7 3 5 5 5 6 7 6 6 7 7 7 6 6 5 5 5 5 5 5 5 5 5 5 5 5
1 1 1 2 2 2 2 2 3 3 3 3 3 4 4 4 4 5 5 6 6 6 4 5 5 5 6 6 6 6 6 6 6 5 5 5 5 5 5 4 4 4 5 5 5 5 4
1 2 2 2 2 2 2 3 3 3 3 3 4 4 4 4 4 5 5 5 6 6 5 5 4 4 5 5 5 5 5 6 5 5 5 4 4 4 4 4 4 4 5 4 5 4 4
1 1 1 2 2 2 3 3 3 3 3 4 4 4 4 4 5 4 5 5 6 4 4 5 4 4 5 4 4 4 4 5 4 4 4 4 4 4 4 4 3 3 4 3 3 2 2
1 1 1 2 2 2 3 3 3 3 3 4 4 4 4 5 5 5 5 5 4 4 4 4 4 4 4 4 4 4 4 3 3 4 4 3 3 3 4 3 3 3 3 3 2 0 0
1 1 1 1 2 2 3 3 3 3 3 4 4 4 4 5 5 5 4 5 4 4 4 4 4 4 4 4 4 4 3 3 3 3 3 3 3 3 3 2 2 2 2 2 2 1 1
1 1 1 2 2 2 2 3 3 3 3 4 4 4 5 5 5 4 4 5 4 4 4 4 4 4 4 4 4 3 3 2 2 2 3 3 3 3 3 2 2 2 2 1 1 0 -0
1 1 1 2 2 2 2 2 3 3 3 3 4 4 4 4 4 4 5 5 4 4 4 4 4 4 4 4 3 3 3 2 2 2 2 2 3 3 2 2 1 1 1 1 0 -0 -1
1 1 1 1 2 2 2 2 2 2 2 3 3 4 4 4 4 4 4 4 4 4 4 4 4 4 4 4 3 3 2 2 2 2 2 2 2 2 2 1 1 1 0 -0 -1 -2 -2
1 1 1 1 1 2 2 2 2 2 2 2 3 3 3 4 4 4 4 4 4 4 4 4 4 3 3 3 3 2 2 2 1 1 1 1 1 1 1 2 1 0 0 -0 -2 -2 -2
1 1 1 1 1 2 2 2 2 2 2 2 2 3 3 3 3 3 4 4 4 4 3 3 3 3 3 3 3 2 2 2 2 2 1 1 1 1 1 1 1 1 1 0 -1 -1 -3
1 1 1 1 1 2 2 2 2 2 2 2 2 3 3 3 3 3 3 3 3 3 3 3 3 3 3 2 2 2 2 2 2 2 1 1 0 0 0 1 1 1 2 0 0 -0 -1
0 1 1 1 1 1 2 2 2 2 2 2 2 3 3 3 3 3 3 3 3 3 3 2 2 2 2 2 2 2 2 2 2 2 1 0 0 -1 -0 0 0 1 1 1 1 0 -0
-0 0 1 1 1 1 1 2 2 2 2 2 3 2 3 3 2 2 2 2 2 2 2 2 2 2 2 1 1 2 2 2 2 2 1 1 -0 -1 -1 -1 -1 1 0 -0 -0 -0 -1
-0 0 0 1 1 1 1 1 2 2 2 2 2 2 2 2 2 2 2 2 2 2 2 1 1 1 1 1 1 2 2 2 1 1 1 0 -0 -1 -2 -4 -2 0 -0 -1 -1 -2 -1
-0 -0 0 0 1 1 1 1 1 1 1 2 2 2 2 2 2 2 2 2 2 1 1 1 1 1 1 1 0 0 1 1 0 0 0 -0 -1 -2 -3 -4 -3 -0 -1 -2 -2 -2 -3
-1 -0 -0 0 0 0 1 1 1 1 1 1 1 1 1 1 1 1 1 1 1 1 1 1 1 0 0 0 -0 -1 -0 -0 -0 -1 -1 -1 -2 -2 -3 -4 -3 -2 -2 -2 -3 -4 -4
-1 -1 -1 -0 0 0 0 0 0 1 1 1 1 1 1 1 1 1 1 1 1 1 0 0 0 0 -0 -1 -1 -1 -1 -1 -1 -2 -2 -2 -3 -3 -4 -4 -3 -2 -2 -3 -4 -4 -4
-1 -1 -1 -1 -0 -0 0 0 0 0 0 1 1 1 1 1 1 1 1 1 1 0 0 0 -0 -0 -1 -1 -1 -2 -2 -2 -3 -3 -3 -3 -3 -3 -3 -3 -2 -3 -4 -4 -4 -4 -4

GFSGBSN_700_temp_021.txt.gz
Temp
3 4 4 4 5 5 4 4 4 4 5 5 5 5 5 5 5 5 5 5 5 5 4 5 5 5 5 5 6 6 7 7 7 8 8 8 9 9 10 9 10 9 9 8 8 8 8
3 4 4 4 4 4 4 4 4 4 4 5 5 5 5 5 5 5 5 5 4 4 4 5 5 5 5 6 6 6 7 7 6 7 8 8 8 9 9 9 10 9 8 8 8 8 8
3 4 4 3 4 3 3 4 4 4 4 4 4 5 5 5 5 4 4 4 4 4 5 5 5 5 5 5 6 6 7 7 7 7 7 8 8 8 8 8 8 8 9 8 8 8 8
3 3 3 3 3 3 3 3 3 4 4 4 5 4 4 4 4 4 4 4 4 4 5 5 5 5 5 6 6 6 7 7 7 7 8 8 8 8 9 8 8 9 9 10 9 8 8
3 3 2 2 3 3 3 3 3 3 4 4 4 4 4 4 4 4 3 4 4 5 5 5 5 5 6 6 6 7 7 6 7 7 7 8 8 8 8 9 10 10 11 11 9 8 8
2 2 2 2 2 2 2 2 3 3 4 4 4 4 4 4 4 3 3 4 4 5 5 5 6 5 6 5 7 7 7 7 6 7 7 7 8 9 10 10 12 11 11 9 10 8 8
1 2 2 2 2 2 2 2 2 3 3 3 3 4 4 3 3 3 4 4 4 5 4 5 6 5 6 7 7 7 7 7 7 7 8 8 9 10 9 8 8 9 9 10 9 7 8
1 2 2 2 2 2 1 2 2 3 3 3 3 3 3 3 3 4 4 4 5 5 5 5 6 6 6 6 6 6 6 7 7 9 8 8 9 7 7 7 8 8 9 9 8 7 7
1 1 2 1 2 2 2 2 2 2 3 3 3 3 3 3 4 4 4 4 5 5 5 5 5 5 7 5 6 7 7 7 8 8 9 9 7 7 7 7 8 8 8 7 7 7 7
1 1 1 1 2 2 2 2 2 2 2 3 3 3 3 4 4 4 4 5 5 6 7 5 5 6 6 6 6 7 7 7 7 8 8 7 7 6 7 7 6 8 6 6 6 7 10
0 1 1 1 2 2 2 2 2 2 2 3 3 3 3 3 4 4 5 5 6 6 9 6 5 6 6 6 6 7 7 6 7 7 7 7 6 6 7 5 6 7 6 5 6 7 9
0 1 1 1 2 2 2 2 2 2 2 3 3 3 3 4 4 5 5 5 5 6 7 5 5 5 5 5 7 6 6 7 6 6 7 6 6 5 5 5 5 6 5 6 6 8 9
0 1 1 1 1 2 2 2 2 2 3 3 3 3 3 4 4 5 5 5 6 7 6 6 6 6 6 5 6 5 6 5 7 7 7 6 5 5 5 6 5 6 7 9 8 9 9
0 1 1 1 1 2 2 2 2 2 3 3 3 3 3 4 4 5 5 4 6 6 7 6 6 6 6 5 5 5 6 6 5 6 7 8 7 5 5 5 5 5 6 6 7 8 9
0 1 1 1 1 2 2 2 2 2 3 3 3 3 3 4 4 5 4 5 6 6 6 6 6 6 5 5 5 5 5 4 5 5 7 7 6 4 5 4 5 5 5 4 5 4 5
0 1 1 1 1 2 2 2 2 3 3 3 3 3 4 4 4 4 4 5 5 5 5 6 7 6 7 6 6 6 5 4 4 5 5 4 6 4 4 5 4 4 4 5 5 4 6
0 1 1 1 1 2 2 2 2 3 3 3 3 2 4 4 4 4 4 4 5 5 4 5 6 5 6 5 6 5 4 4 4 5 5 4 4 5 4 4 5 5 5 4 4 4 5
-0 1 1 1 1 2 2 2 2 3 3 3 3 3 4 4 3 3 4 4 4 5 5 5 4 5 5 5 5 4 4 3 4 4 3 5 3 4 5 3 4 3 4 4 4 4 3
0 0 1 1 1 2 2 2 2 3 3 3 2 2 4 4 3 4 4 5 4 5 4 4 5 4 4 4 4 3 3 4 4 4 3 4 3 5 6 3 2 3 3 2 1 0 1
-0 0 1 1 1 1 2 2 2 3 3 3 2 2 3 4 3 4 4 4 5 5 5 5 5 5 4 4 4 4 4 4 4 4 4 4 2 3 4 4 3 3 3 3 2 1 2
0 0 1 1 1 1 2 2 2 2 3 3 3 2 3 3 4 3 4 4 4 4 4 4 4 3 3 3 3 3 2 4 4 4 4 3 2 2 2 2 2 2 2 2 2 2 2
0 0 1 1 1 1 1 1 2 2 2 3 2 3 4 4 3 3 3 3 4 4 4 4 3 3 3 4 3 3 3 2 2 3 1 3 1 2 3 2 2 1 1 2 2 1 2
0 0 1 1 1 1 1 1 1 2 2 2 3 3 3 4 3 3 3 3 3 3 4 3 3 3 3 2 3 4 4 3 2 1 1 1 2 1 1 2 1 2 1 2 1 1 1
-0 0 1 1 1 1 1 2 2 2 2 2 2 3 3 4 3 3 3 3 2 2 3 2 2 2 3 3 3 3 3 3 3 3 2 2 1 0 0 0 1 1 1 1 0 0 0
-0 0 0 1 1 1 1 1 2 2 2 2 2 3 3 3 3 3 3 2 3 3 3 3 3 3 3 3 2 3 3 3 2 2 1 1 1 -0 -1 -0 0 1 -1 -0 -1 -1 -1
-0 -0 0 0 0 1 1 1 1 2 2 2 2 3 3 3 3 3 3 3 3 2 2 2 2 2 2 2 2 2 1 1 1 1 1 1 0 -1 -2 -2 -1 0 -1 -2 -1 -1 -2
-1 -0 -0 0 0 1 1 1 1 2 2 2 2 2 2 2 3 2 2 2 1 2 1 2 2 2 2 2 1 1 1 1 1 1 1 0 -1 -2 -3 -3 -2 -1 -2 -2 -2 -2 -3
-1 -0 -0 0 0 1 1 1 1 1 1 1 2 2 2 2 2 2 2 2 2 1 2 2 1 1 1 1 1 1 1 1 1 0 0 -1 -1 -2 -3 -3 -3 -2 -2 -3 -3 -3 -3
-1 -0 -0 -0 0 0 1 1 1 1 1 1 1 1 1 1 2 2 2 2 2 2 1 1 0 2 1 1 1 1 1 0 0 -1 -0 -1 -1 -1 -2 -2 -1 -2 -3 -3 -3 -3 -4

GFSGBSN_700_temp_024.txt.gz
Temp
3 4 4 4 4 5 5 4 5 5 5 5 5 5 5 5 5 5 5 5 5 5 4 5 5 5 6 6 6 6 7 7 8 8 8 9 9 10 10 10 10 10 9 9 9 9 9
3 4 4 4 4 4 4 4 5 4 4 5 5 5 5 5 5 5 5 5 5 4 4 5 5 5 6 5 6 6 7 7 8 8 8 9 9 10 10 10 10 9 9 9 8 8 9
3 3 4 4 4 4 4 4 4 4 4 4 4 4 5 5 5 5 5 4 4 4 5 5 5 5 5 5 6 6 7 7 7 7 8 8 8 9 10 9 9 9 9 9 9 9 9
3 3 4 4 4 3 3 4 4 4 4 4 4 4 4 5 5 4 4 4 4 4 5 5 5 5 5 6 6 7 6 7 7 7 7 7 8 9 9 9 9 9 10 10 9 9 9
3 3 3 3 3 3 3 3 4 4 4 4 4 4 4 4 4 4 4 4 4 4 5 5 6 6 6 6 7 6 7 7 7 7 8 8 8 9 9 9 10 10 11 11 10 9 10
2 3 3 3 3 2 3 3 3 4 4 4 4 4 4 4 4 3 4 4 4 5 5 5 6 5 6 6 7 8 7 7 7 8 8 8 8 9 10 10 10 11 12 11 11 9 9
2 2 2 2 2 2 2 3 3 3 3 4 3 4 4 3 3 3 4 4 4 5 5 5 6 6 6 7 8 7 7 8 7 7 8 9 9 10 9 9 9 10 10 11 11 9 9
2 2 2 2 2 2 2 2 3 3 3 3 3 3 3 3 3 4 4 4 5 5 5 5 6 6 7 6 6 7 7 7 7 8 9 9 9 9 8 9 9 10 10 10 10 9 8
2 1 1 2 2 2 2 2 2 2 3 3 3 3 3 3 3 4 4 4 5 6 5 5 6 6 6 6 7 6 7 7 8 9 9 8 8 9 9 8 8 10 9 8 8 8 8
1 1 1 1 2 2 2 2 2 2 3 3 3 3 3 3 3 4 4 5 5 6 6 6 6 6 6 6 7 6 7 7 8 9 9 8 7 7 8 8 7 9 7 7 7 8 9
1 1 1 1 2 2 2 2 2 2 2 3 3 3 3 3 3 3 4 5 6 6 8 6 6 7 6 6 7 7 7 7 8 8 8 8 7 7 8 7 7 7 7 7 7 8 9
1 0 1 1 2 2 2 2 2 2 2 2 3 3 3 3 3 4 4 5 6 6 7 6 6 6 6 6 6 6 7 7 7 8 8 7 7 6 6 6 6 7 7 8 7 8 9
0 0 1 1 2 2 2 2 2 2 2 2 3 3 3 3 3 4 5 5 5 7 7 7 7 7 7 6 7 7 7 7 8 8 8 7 7 6 6 7 7 7 7 8 7 8 8
0 0 0 1 1 2 2 2 2 2 2 2 2 3 3 3 4 4 5 4 6 8 8 7 7 7 7 6 6 7 7 7 6 7 8 8 7 6 6 6 6 7 7 7 6 6 7
-0 0 0 1 1 1 2 2 2 2 2 2 2 3 3 4 4 4 5 5 7 7 7 7 7 7 7 6 6 7 7 6 5 6 7 8 7 6 6 5 5 6 6 5 6 5 5
-0 0 0 1 1 1 2 2 2 2 2 2 3 3 3 3 4 4 4 5 6 6 7 7 7 8 7 7 7 7 6 5 5 6 6 6 7 5 5 5 5 5 5 6 6 5 6
-0 0 0 1 1 1 2 2 2 2 2 2 3 2 3 4 4 4 4 5 5 6 6 7 7 7 8 7 7 7 6 5 4 6 5 5 6 6 5 5 5 5 6 5 6 5 5
-0 -0 0 1 1 1 2 2 2 2 2 2 2 2 3 4 4 4 5 5 5 5 6 6 6 7 7 6 6 6 5 5 5 5 4 5 4 5 6 5 5 4 4 4 4 4 4
-0 -0 0 0 1 1 2 2 2 2 2 2 3 2 3 4 3 4 4 4 5 4 5 5 5 5 5 6 5 5 4 5 5 5 4 5 4 5 5 4 4 4 4 4 3 2 2
-0 -0 0 0 1 1 2 2 2 2 3 3 2 2 3 3 3 4 4 4 4 4 4 4 5 4 5 5 5 4 4 5 5 5 5 5 4 4 4 5 4 4 4 4 4 3 2
-0 -0 0 0 1 1 1 2 2 2 2 2 2 3 3 3 3 4 4 5 4 4 4 4 4 5 5 4 4 4 3 5 4 5 5 4 3 3 3 3 3 3 3 3 3 3 3
-0 -0 0 0 1 1 1 2 2 2 2 2 2 2 3 3 4 4 4 5 5 5 4 4 4 4 4 4 4 4 4 3 3 4 2 3 2 3 4 3 2 3 2 2 2 3 3
-0 -0 0 0 1 1 1 1 2 2 2 2 2 3 3 4 3 4 4 4 5 4 4 4 4 4 4 3 3 4 3 3 3 2 2 2 3 2 2 2 2 2 2 2 2 2 2
-0 0 0 0 1 1 1 1 1 1 2 2 3 3 3 3 3 3 3 4 4 3 4 3 3 3 3 4 4 4 4 4 3 3 2 2 2 2 2 1 0 2 2 2 1 1 1
-0 -0 0 0 1 1 1 1 1 1 2 2 2 2 3 3 4 3 3 3 3 3 2 3 3 4 3 3 3 3 3 3 3 2 2 0 2 1 0 -0 1 1 1 1 0 0 -1
-0 -0 -0 0 0 1 1 1 2 2 2 2 2 2 3 3 3 2 3 3 3 2 3 3 3 3 3 3 3 3 2 2 1 1 2 1 1 0 -1 -2 -0 1 0 -0 -1 -1 -2
-1 -0 -0 0 0 1 1 1 1 2 2 2 2 2 2 2 3 2 2 2 1 2 2 2 3 2 2 2 2 2 2 2 2 1 2 1 0 -1 -3 -3 -2 -1 -1 -1 -2 -2 -2
-1 -1 -0 -0 0 0 1 1 1 1 2 2 2 2 2 2 2 2 2 1 1 1 1 2 2 2 2 2 2 2 2 1 1 1 1 1 -0 -1 -3 -3 -2 -1 -2 -2 -2 -2 -3
-1 -1 -0 -0 0 0 1 1 1 1 1 1 1 2 2 2 2 2 2 2 2 2 1 2 1 2 2 2 2 1 2 1 1 1 1 0 0 -1 -1 -0 -1 -2 -3 -2 -2 -3 -4